Regional Weather Roundup
Issued by NWS Midland/Odessa, TX

Home | Current Version | Previous Version | Text Only | Print | Product List | Glossary On
Versions: 1 2 3 4 5 6 7 8 9 10 11 12 13 14 15 16 17 18 19 20 21 22 23 24 25 26 27 28 29 30 31 32 33 34 35 36 37 38 39 40 41 42 43 44 45 46 47 48 49 50
000
ASUS44 KMAF 271910
RWRMAF
MIDLAND AREA WEATHER ROUNDUP
NATIONAL WEATHER SERVICE MIDLAND TX
200 PM CDT THU APR 27 2017

...IN SOUTHWEST TEXAS AND SOUTHEAST NEW MEXICO...

CITY           SKY/WX    TMP DP  RH WIND       PRES   REMARKS
ALPINE         SUNNY     85  31  14 S17G26    29.81F
ANDREWS        FAIR      85  31  14 W23G35    29.62F
ARTESIA        SUNNY     84  34  16 SW28G38   29.58F
BIG SPRING     SUNNY     85  35  16 S23G30    29.63F
CARLSBAD       MOSUNNY   85  27  12 W25G33    29.60F
DRYDEN           N/A     88  36  15 VRB7G17   29.66F
FORT STOCKTON  SUNNY     89  35  14 VRB5G24   29.65F
GUAD PASS      CLOUDY    76  30  18 W56G67    29.67F
HOBBS          SUNNY     82  25  12 SW21G30   29.62F
MARFA          SUNNY     83  31  15 SW20G29   29.80F
MIDLAND AIRPK  SUNNY     87  29  12 SW17G28   29.62F
MIDLAND INTL   SUNNY     88  30  12 SW20G32   29.62F
ODESSA         SUNNY     87  26  11 SW21G35   29.63F
PECOS          SUNNY     89  32  13 W21G26    29.61F
PRESIDIO       FAIR      90  31  12 S7G18     29.70F
SEMINOLE       SUNNY     84  31  14 SW18G30   29.61F
SNYDER         SUNNY    N/A N/A N/A S16G23    29.60F
WINK           SUNNY     90  28  11 W21G41    29.60F
$$
...OTHER STATIONS IN TEXAS...

CITY           SKY/WX    TMP DP  RH WIND       PRES   REMARKS
ABILENE        SUNNY     80  42  25 S21G30    29.64F
AMARILLO       MOSUNNY   78  32  18 W22G29    29.52F
AUSTIN         PTSUNNY   80  46  30 S14       29.75F
BROWNSVILLE    MOSUNNY   87  72  60 E14       29.72F
CORPUS CHRISTI MOSUNNY   82  66  58 E9G16     29.75F
DALLAS FTW     MOSUNNY   72  46  39 S15       29.73F
DEL RIO        MOSUNNY   80  46  30 SE20G28   29.70F
EL PASO        PTSUNNY   82  28  14 W25G32    29.71F
HOUSTON INT    MOSUNNY   78  52  40 SE5       29.78F
LUBBOCK        MOSUNNY   83  30  14 S18G26    29.56F
SAN ANGELO     SUNNY     87  38  17 S20G35    29.65F
SAN ANTONIO    PTSUNNY   78  48  34 S14G21    29.76F
WACO           SUNNY     74  50  42 SE12G18   29.74F
WICHITA FALLS  NOT AVBL
$$
...OTHER LOCATIONS IN NEW MEXICO...

CITY           SKY/WX    TMP DP  RH WIND       PRES   REMARKS
ALAMOGORDO     MOSUNNY   77  32  19 SW12G21   29.71F
ALBUQUERQUE    CLOUDY    70  28  21 W30G45    29.65F
CANNON AFB     CLOUDY    77  29  17 W30G36    29.56F
CLOVIS         CLOUDY    77  32  19 W21G33    29.56F
HOLLOMAN AFB   CLOUDY    79  33  18 SW24G31   29.72F
ROSWELL        SUNNY     85  28  12 W21G29    29.58F
RUIDOSO        SUNNY     66  27  22 W21G36    29.77F
SANTA FE       CLOUDY    62  33  33 W24G39    29.66F
TRUTH OR CONSE MOSUNNY   80  29  15 W20G40    29.67F
TUCUMCARI      MOSUNNY   75  30  19 W32G44    29.50F
$$




USA.gov is the U.S. government's official web portal to all federal, state and local government web resources and services.